STARLINK-32159, 60293

Orbit data source: Space-Track

STARLINK-32159, 60293 is a payload satellite owned by SpaceX/Seattle (US) in LEO that was launched on Sun, 28 Jul 2024 UTC via an FALCON 9 launch vehicle from the Air Force Eastern Test Range (AFETR). Payload-class satellites include a variety of spacecraft equipped with specific instruments for various scientific and technological missions. These include communications satellites like Starlink; space stations such as the ISS; scientific satellites like the Hubble; Earth observation satellites from companies like Planet Labs, Umbra, and HawkEye 360; GPS; miniature CubeSats for education and research; and military/defense satellites.

Loading next visibility...
Identifier
60293, 2024-132R
Orbit
LEO
Last TLE update
9 hours ago
Origin
Manufacturer
SpaceX/Seattle
Mission
Operational spacecraft
Bus & Motor
STARLINK V2M, Unknown motor
Mass
730 kg wet, ~700 kg dry
Launch date (UTC)
2024-07-28 (11 months ago)
Launch vehicle
FALCON 9
Launch site
Air Force Eastern Test Range (AFETR)
Object type
Payload
Rocket body
Debris
Shape & HBR
Unknown
Radar Cross Section
Large (>1 m²)

Expand to show TLE details & history

TLE from 9 hours ago
0 STARLINK-32159
1 60293U 24132R   25189.92906488  .00000711  00000-0  36139-4 0  9998
2 60293  53.1594 104.3821 0001115  91.9321 268.1807 15.30192658 54248
Epoch: 2025-07-08T22:17Z
TLE epoch observation values (Epoch: 2025-07-08T22:17:51.205Z)
Latitude
-0.00007°
Longitude
-157.19831°
Altitude
476.161 km
Speed
7.629 km/s
True Right ascension
06h 57m 31s
True Declination
0° 00' 00"
Sunlit
Object was in daylight at epoch
Visualization orbit readout
Latitude
-48.85948°
Longitude
79.59912°
Altitude
492.732 km
Speed
7.618 km/s
Apparent Right ascension
03h 22m 49s
Apparent Declination
-66° 22' 37"
Sunlit
Object is in full shadow
Visualization observer readout
Local Sidereal Time
19:22:48
Azimuth
148.85° SSE
Elevation
-47.866°
Doppler factor
1
Orbital elements
Apogee altitude
476.258 km
Perigee altitude
474.729 km
Semi-major axis
6,853.631 km
Eccentricity
0.00011
Inclination
53.1594°
RAAN
104.3821°
Arg. of periapsis
91.9321°
True anomaly
Unknown
Mean anomaly
268.1807°
Eccentric anomaly
Unknown
Mean motion
3.82527 °/min
Orbital period
94.11 mins
BSTAR
0.000036139
Loading maneuver chart data...
Loading SW <> Apogee altitude chart data...
Loading historical data...
Loading historical data...
Loading historical data...
Loading historical data...
Loading historical data...
Loading historical data...
Loading historical data...

STARLINK-32159 Visibility forecast

Observer location: undefined°, undefined°

Span
Click to sort rows by Start time (UTC) header in descending order
Start Az.
Max El. time (UTC)
Max El. Az.
Max El.
End time (UTC)
End Az.
6 mins2025-07-09 20:24:21.015Z199.411° SSW2025-07-09 20:27:21.015Z124.818° SE32.117°2025-07-09 20:30:21.015Z65.248° ENE
4 mins2025-07-09 22:03:21.015Z285.778° WNW2025-07-09 22:05:21.015Z337.64° N25.224°2025-07-09 22:07:21.015Z22.011° NNE
5 mins2025-07-10 03:00:21.015Z340.862° N2025-07-10 03:02:21.015Z44.867° NE30.504°2025-07-10 03:05:21.015Z100.933° ESE
4 mins2025-07-10 04:38:21.015Z267.45° W2025-07-10 04:40:21.015Z214.313° SW23.627°2025-07-10 04:42:21.015Z176.171° S
|